TimeEDT,TemperatureF,Dew PointF,Humidity,Sea Level PressureIn,VisibilityMPH,Wind Direction,Wind SpeedMPH,Gust SpeedMPH,PrecipitationIn,Events,Conditions,WindDirDegrees,DateUTC
12:54 AM,64.0,57.0,78,29.91,10.0,SW,9.2,-,N/A,,Clear,230,2012-10-06 04:54:00
1:54 AM,63.0,55.9,78,29.90,10.0,SW,8.1,-,N/A,,Clear,230,2012-10-06 05:54:00
2:54 AM,62.1,55.9,80,29.88,10.0,SW,6.9,-,N/A,,Clear,220,2012-10-06 06:54:00
3:54 AM,62.1,55.9,80,29.87,10.0,SW,9.2,-,N/A,,Clear,230,2012-10-06 07:54:00
4:54 AM,62.1,55.9,80,29.86,10.0,SW,9.2,-,N/A,,Clear,220,2012-10-06 08:54:00
5:54 AM,60.1,55.9,86,29.85,8.0,SSW,5.8,-,N/A,,Clear,200,2012-10-06 09:54:00
6:54 AM,59.0,55.9,90,29.84,6.0,South,5.8,-,N/A,,Partly Cloudy,180,2012-10-06 10:54:00
7:54 AM,62.1,59.0,90,29.85,5.0,SSW,6.9,-,N/A,,Partly Cloudy,200,2012-10-06 11:54:00
8:54 AM,64.9,60.1,84,29.84,7.0,SSW,10.4,-,N/A,,Clear,200,2012-10-06 12:54:00
9:54 AM,68.0,60.1,76,29.83,9.0,SSW,10.4,-,N/A,,Partly Cloudy,200,2012-10-06 13:54:00
10:54 AM,71.1,60.1,68,29.82,10.0,SSW,11.5,-,N/A,,Clear,200,2012-10-06 14:54:00
11:54 AM,73.0,60.1,64,29.79,10.0,SSW,12.7,-,N/A,,Clear,200,2012-10-06 15:54:00
12:54 PM,75.9,59.0,56,29.75,10.0,SSW,13.8,-,N/A,,Clear,200,2012-10-06 16:54:00
1:54 PM,78.1,57.0,48,29.72,10.0,SSW,23.0,32.2,N/A,,Mostly Cloudy,200,2012-10-06 17:54:00
2:54 PM,75.9,57.0,52,29.71,10.0,SW,20.7,29.9,N/A,,Overcast,220,2012-10-06 18:54:00
3:54 PM,77.0,57.9,52,29.70,10.0,SSW,16.1,26.5,N/A,,Mostly Cloudy,210,2012-10-06 19:54:00
4:54 PM,73.0,59.0,61,29.70,10.0,South,13.8,-,N/A,,Overcast,190,2012-10-06 20:54:00
5:54 PM,71.1,60.1,68,29.72,10.0,SSW,13.8,-,N/A,,Overcast,200,2012-10-06 21:54:00
6:12 PM,71.6,60.8,69,29.75,7.0,West,17.3,21.9,0.00,Rain,Light Rain,280,2012-10-06 22:12:00
6:19 PM,64.4,55.4,73,29.78,2.0,WNW,26.5,32.2,0.00,Rain,Rain,300,2012-10-06 22:19:00
6:30 PM,62.6,57.2,82,29.78,3.0,WNW,17.3,31.1,0.06,Rain,Light Rain,300,2012-10-06 22:30:00
6:45 PM,62.6,55.4,77,29.78,7.0,WNW,16.1,21.9,0.06,Rain-Thunderstorm,Light Thunderstorms and Rain,290,2012-10-06 22:45:00
6:54 PM,63.0,55.0,75,29.79,7.0,WNW,13.8,26.5,0.06,Rain-Thunderstorm,Light Thunderstorms and Rain,290,2012-10-06 22:54:00
7:09 PM,62.6,55.4,77,29.80,10.0,WNW,11.5,19.6,0.00,,Overcast,290,2012-10-06 23:09:00
7:54 PM,62.1,52.0,70,29.82,10.0,West,12.7,-,0.00,,Overcast,280,2012-10-06 23:54:00
8:54 PM,60.1,48.9,67,29.86,10.0,WNW,13.8,20.7,N/A,,Scattered Clouds,290,2012-10-07 00:54:00
9:54 PM,57.9,48.0,70,29.89,10.0,WNW,13.8,-,N/A,,Partly Cloudy,290,2012-10-07 01:54:00
10:54 PM,57.0,44.1,62,29.91,10.0,WNW,12.7,-,N/A,,Partly Cloudy,290,2012-10-07 02:54:00
11:54 PM,55.0,43.0,64,29.94,10.0,West,11.5,-,N/A,,Clear,280,2012-10-07 03:54:00